Find Starlink 38309

NORAD ID: 100381 Int'l Des: 2026-190 Owner: SPXS Country: US Constellation: starlink operational

Current View

Loading 3D Globe...

About Starlink 38309

Starlink 38309 (NORAD 100381) is a starlink constellation satellite launched Aug 19, 2026 by SPXS of US. with a mass of 575.00 kg.

Upcoming Passes

Passes for default location (London). Set your location on the main map for personalized predictions.

Altitude History

Loading altitude history...

Two-Line Element Set

1 A0381U 26190L 26262.95692338 -.00404066 00000-0 -62790-2 0 9991
2 A0381 97.2847 117.1886 0003180 53.7640 306.3908 15.55273132 6289
Epoch: Sep 19, 2026 • Age: 15 hours

Current Status

Altitude 414.8 km
Apogee / Perigee N/A
Velocity 7.66 km/s
Sub-Earth Point -26.44°S, 88.47°E
Launch Date Aug 19, 2026
Age 32 days
Type internet

Technical Details

Classification Payload
Mass 575.00 kg
Dry Mass 530.00 kg
Length 0.30 m
Span 29.00 m
Shape ? Box + pan
Manufacturer SPXS
Bus Type Starlink V2MO
Phase Status In Orbit
Owner/State SPXS/US

Most Searched